星链-5704 (STARLINK-5704 )

导读

STARLINK-5704是美国SpaceX公司星链(Starlink)星座的一颗低轨通信卫星,于2023年2月2日发射。星链星座旨在为全球提供高速低延迟宽带互联网服务,该卫星采用平板设计,搭载Ku/Ka波段通信载荷与霍尔推进器,具备自主避撞能力,寿命末期会主动离轨并在大气层中焚毁,助力全球互联网覆盖建设。

基本信息
目录编号:
55486
目录名称:
STARLINK-5704
国际标识:
2023-015AP
轨道中心:
EARTH
卫星名称:
星链-5704
卫星全名:
星链-5704 (STARLINK-5704 )
卫星状态:
在轨 (已飞行1318 天)
发射日期:
2023-02-02 UTC
国别 :
美国 (US)
星等 :
--
该卫星已列入 空间交会检测服务 Space Conjunction Data Service (SCDS) ,当前飞行风险评估等级: 无高风险
轨道信息
数据来源 国际轨道数据
星历时间: 2026-09-12T15:22:54+0800
8小时前
查看轨道信息
半长轴: 6805.874km
偏心率: 0.0001613
轨道倾角: 43.001°
近地点辐角 296.896°
升交点赤经 4.234°
平近点角 63.174°
近地点: 426.639km
远地点: 428.835km
周期: 93.129分钟
每日圈数: 15.462402
详细信息
固有亮度:
5
最大亮度:
2.5
卫星平台:
Starlink v1.5
覆盖范围:
全球
运营商:
太空探索技术公司
运营商所在国:
美国
制造商(研发单位):
太空探索技术公司
制造商所在国:
美国
使用方式:
暂无
卫星简介
星链(Starlink)计划是由太空探索技术公司(SpaceX)提出的一个巨型低轨卫星互联网星座项目,计划在2019年至2024年间在太空搭建由约1.2万颗卫星组成的“星链”网络,其中1584颗将部署在地球上空550千米处的近地轨道,并从2020年开始工作。该卫星仍在工作。
2D轨道图
3D轨道图
轨道高度分析图
轨道倾角分析图
轨道综合分析图
查看轨道综合分析图
交会数据列表
事件ID 空间交会对象 最接近时刻(TCA) 交会距离 交会风险概率(CRP) 交会风险指数(CRI) 操作
CDM_260914-065505-548605-912021
TIGER-8 (59120)
2026-09-14T
06:55:14+0000
2.376 km
极远距离
1.456114E-6 低风险 0.38
与全量物体交会距离演化趋势
与全量物体交会风险概率演化趋势